SCP
0 0 0 0 0 0 0 0 0 0 0 -0 0 0 -0 -0 -0 -0 -0 -0 0 0 0 0 0 0 0 0 0 0 0 0 0 0 0 0 0 0
0 0 0 0 0 0 0 0 0 0 0 0 0 0 0 -0 -0 -0 -0 -0 -0 0 0 0 0 0 0 0 0 0 0 0 0 0 0 0 0 0
0 0 0 0 0 0 0 0 0 0 0 0 0 0 0 0 -0 -0 -0 -0 -0 -0 0 0 0 0 0 0 0 0 0 0 0 0 0 0 0 0
0 0 0 0 0 0 0 0 0 0 0 0 0 0 0 0 0 -0 -0 0 0 -0 0 0 0 0 0 0 0 0 0 0 0 0 0 0 0 0
0 0 0 0 0 0 0 0 0 0 0 0 0 0 0 0 0 0 0 0 0 -0 0 0 0 0 0 0 0 0 0 0 0 0 0 0 0 0
0 0 0 0 0 0 0 0 0 0 0 0 0 0 0 0 0 0 0 0 0 0 0 0 0 0 0 0 0 0 0 0 0 0 0 0 0 0
0 0 0 0 0 0 0 0 0 0 0 0 0 0 0 0 0 0 0 0 0 0 0 0 0 0 0 0 0 0 0 0 0 0 0 0 0 0
0 0 0 0 0 0 0 0 0 0 0 0 0 0 0 0 0 0 0 0 0 0 0 0 0 0 0 0 0 0 0 0 0 0 0 0 0 0
0 0 0 0 0 0 0 0 0 0 0 0 0 0 0 0 0 0 0 0 0 0 0 0 0 0 0 0 0 0 0 0 0 0 0 0 0 0
0 0 0 0 0 0 0 0 0 0 0 0 0 0 0 0 0 0 0 0 0 0 0 0 0 0 0 0 0 0 0 0 0 0 0 0 0 0
0 0 0 0 0 0 0 0 0 0 0 0 0 0 0 0 0 0 0 0 0 0 0 0 0 -0 0 0 0 0 0 0 0 0 0 0 0 0
0 0 0 0 0 0 0 0 0 0 0 0 0 0 0 0 0 0 0 0 0 0 0 0 -0 -0 -0 -0 0 0 0 0 0 0 0 0 0 0
0 0 0 0 0 0 0 0 0 0 0 0 0 0 0 0 0 0 0 0 0 0 0 0 0 0 0 -0 0 0 0 0 0 0 0 0 0 0
0 0 0 0 0 0 0 0 0 0 0 0 0 0 0 0 0 0 0 0 0 0 -0 0 0 0 -0 0 0 0 0 0 0 0 0 0 0 0
0 0 0 0 0 0 0 0 0 0 0 0 0 0 0 0 0 0 0 0 0 0 0 0 0 0 0 0 0 0 0 0 0 0 0 0 0 0
0 0 0 0 0 0 0 0 0 0 0 0 0 0 0 0 0 0 0 0 -0 0 0 0 0 0 0 0 0 0 0 0 0 0 0 0 0 0
0 0 0 0 0 0 0 0 0 0 0 0 0 0 0 0 0 0 0 0 -0 0 0 0 0 0 0 0 0 0 0 0 0 0 0 0 0 0
0 0 0 0 0 0 0 0 0 0 0 0 0 0 0 0 0 0 0 0 0 0 0 0 0 0 0 0 -0 0 0 0 0 0 0 0 0 0
0 0 0 0 0 0 0 0 0 0 0 0 0 0 0 0 0 0 0 0 0 0 0 0 0 0 0 0 0 0 0 0 0 0 0 0 0 0
0 0 0 0 0 0 0 0 0 0 0 0 0 0 0 0 0 0 0 0 0 0 0 0 0 0 0 0 0 0 0 0 0 0 0 0 0 0
0 0 0 0 0 0 0 0 0 0 0 0 0 0 0 0 0 0 0 0 0 0 0 0 0 0 0 0 0 0 0 0 0 0 0 0 0 0
0 0 0 0 0 0 0 0 0 0 0 0 0 0 0 0 0 0 0 0 0 0 0 0 0 0 0 0 0 0 0 0 0 0 0 0 0 0
0 0 0 0 0 0 0 0 0 0 0 0 0 0 0 0 0 0 0 0 0 0 0 0 0 0 0 0 0 0 0 0 0 0 0 0 0 0
Wind_Speed_500mb
16 17 18 21 24 27 32 35 37 46 71 73 78 83 89 89 87 88 86 83 80 81 82 76 69 71 68 65 62 61 60 60 60 60 58 57 55 57
18 19 22 24 26 30 33 34 34 39 50 76 82 85 92 95 93 89 89 86 78 73 73 71 61 57 52 49 48 46 48 52 56 59 61 59 58 58
21 24 27 29 31 34 35 36 40 45 58 78 79 84 92 97 95 88 82 82 81 73 68 63 62 61 61 62 62 60 59 62 65 64 61 62 60 61
25 28 30 33 36 38 39 42 47 50 58 73 81 86 92 93 94 91 85 79 79 78 67 64 60 61 58 59 59 61 59 59 59 48 52 61 62 68
26 29 33 38 40 42 45 48 51 55 58 68 80 85 92 94 95 93 92 90 84 82 79 72 66 61 61 59 59 60 60 61 61 46 43 39 40 52
27 31 36 41 44 46 50 52 56 59 61 66 76 86 92 92 91 91 97 91 91 92 88 85 78 75 67 63 59 59 57 53 51 49 53 47 44 43
31 36 39 43 47 50 54 57 59 59 61 65 73 85 91 84 85 88 85 91 88 85 88 81 84 81 73 77 78 62 51 53 53 51 59 55 50 51
37 39 42 45 47 51 55 57 57 55 58 59 69 72 85 81 84 87 88 86 81 69 83 101 86 81 77 72 63 60 56 52 51 51 51 53 56 54
43 46 48 48 49 53 55 56 55 52 46 48 68 75 80 77 79 87 84 88 88 95 90 93 78 76 76 71 67 58 54 53 50 48 44 46 46 50
50 51 51 52 52 54 57 58 57 60 60 63 66 68 62 68 74 76 77 81 81 73 63 76 73 77 70 73 70 57 45 33 31 36 46 49 55 54
54 54 54 57 54 54 56 57 60 64 61 66 64 59 64 65 64 67 69 65 74 69 74 76 67 82 86 82 72 28 29 51 66 59 46 45 46 46
57 58 59 59 59 55 48 53 64 67 69 72 67 63 61 61 57 55 58 61 69 79 72 65 71 70 55 55 35 64 73 60 51 41 38 39 40 45
62 62 61 59 58 54 42 49 64 59 68 67 66 65 63 60 57 56 56 58 64 67 71 55 65 68 60 67 81 74 69 64 59 43 37 36 35 39
66 63 62 61 62 56 42 54 53 59 65 62 62 61 60 58 58 58 60 58 55 61 62 49 55 56 62 71 73 73 67 64 57 47 43 42 43 43
65 65 64 64 52 46 54 59 61 61 58 58 58 56 54 56 59 61 61 61 62 57 54 47 45 46 50 61 70 73 69 67 48 44 55 55 54 51
61 62 62 62 57 57 62 58 60 60 56 55 55 54 54 55 58 58 63 64 68 65 55 51 47 44 49 53 57 69 65 64 60 51 55 55 53 56
60 65 66 65 62 60 60 61 63 58 53 50 50 51 52 54 55 55 57 60 62 67 67 59 53 48 45 46 54 50 49 52 54 53 56 62 51 56
60 69 76 73 67 66 63 67 65 58 50 51 48 48 49 51 53 53 53 55 60 62 64 62 60 60 55 49 23 40 53 53 56 55 54 61 58 53
61 71 80 82 80 76 69 70 67 55 50 49 46 45 46 46 46 49 51 52 57 58 59 60 57 53 59 66 68 39 50 49 49 49 48 49 57 56
69 77 82 76 73 74 75 70 63 55 49 47 44 42 41 41 41 43 45 49 54 56 61 58 56 52 49 57 64 63 44 52 55 62 52 51 53 44
72 77 71 69 71 72 67 64 59 53 48 45 41 39 36 36 35 38 41 42 47 52 59 61 57 46 41 43 44 53 45 31 31 31 33 44 39 37
61 64 68 70 65 62 63 61 55 50 44 41 38 37 33 30 31 34 35 40 42 48 54 57 56 50 43 39 45 46 50 45 37 33 28 19 17 22
51 49 46 43 46 52 54 51 49 46 39 37 36 35 30 27 26 28 29 32 38 45 51 58 58 53 47 40 39 44 39 41 40 33 21 18 18 19
Wind_Direction_500mb
347 344 337 336 333 329 328 331 333 328 326 333 335 335 335 335 334 330 326 321 316 312 310 307 306 303 303 303 301 298 295 292 288 285 283 284 273 271
342 336 332 328 324 320 323 325 325 322 316 325 329 331 330 331 332 329 326 324 320 315 311 310 313 309 306 308 302 305 299 295 292 289 284 281 281 265
335 332 326 322 319 316 315 317 319 321 317 319 324 326 328 328 329 329 328 323 323 323 322 319 313 309 301 298 300 298 296 297 296 287 284 281 277 272
332 323 318 316 312 312 314 315 314 316 315 317 320 324 326 327 328 327 328 325 326 328 328 324 323 320 313 308 304 300 290 288 296 302 292 285 278 266
326 321 316 312 308 308 309 309 310 311 313 314 317 322 326 329 328 327 328 327 326 327 326 325 323 322 315 313 311 307 299 291 290 279 281 278 281 280
323 322 316 307 306 306 306 307 308 311 314 314 317 323 326 328 328 324 321 322 322 325 325 324 324 323 317 316 315 314 309 304 300 277 270 269 283 281
311 313 310 306 305 305 306 308 308 310 312 315 319 322 325 321 319 319 313 315 317 320 319 319 317 319 316 317 317 314 311 303 295 288 275 274 285 288
301 303 304 303 304 303 303 305 306 308 311 313 320 311 314 314 312 316 317 315 314 316 308 306 313 312 317 320 315 305 301 300 296 293 287 283 282 282
293 297 300 304 305 304 303 302 301 302 305 304 306 312 312 318 319 314 306 302 303 303 307 305 312 310 318 318 317 308 303 297 292 292 290 281 277 275
287 292 298 303 304 302 301 300 302 308 311 312 309 309 313 309 309 308 307 306 306 312 314 304 311 311 318 317 320 317 308 308 296 295 298 294 289 281
285 290 295 299 302 299 297 300 301 301 307 305 306 309 313 315 315 314 318 318 312 308 310 305 305 300 303 302 314 306 303 305 304 305 300 300 299 293
284 288 292 298 299 300 293 296 296 300 304 308 314 313 314 316 317 319 325 320 313 315 321 316 316 315 314 314 302 297 306 310 312 307 306 310 308 296
282 286 290 294 293 292 284 282 283 297 301 305 308 311 313 315 319 324 327 321 317 308 318 311 305 308 303 302 306 309 313 314 315 307 305 311 318 319
282 285 289 292 293 292 281 270 277 291 301 301 304 307 310 317 322 324 324 323 319 314 319 317 304 303 304 305 305 312 314 315 316 305 305 311 316 314
281 286 290 293 288 276 274 278 285 295 297 297 300 305 310 316 318 321 322 326 321 324 325 326 319 312 306 301 303 306 310 317 318 310 304 309 312 316
282 284 284 281 277 278 283 287 292 299 292 293 298 303 308 312 316 322 325 327 325 328 332 338 332 321 310 303 298 300 307 301 317 318 317 310 309 315
278 278 279 279 278 279 281 285 291 296 288 289 293 300 306 310 314 321 325 327 327 330 332 336 336 329 321 314 305 308 311 307 315 320 321 318 315 321
288 289 289 286 283 286 284 286 290 293 285 285 292 298 304 309 313 319 325 329 329 331 332 338 338 335 332 324 331 323 313 312 321 318 318 317 317 321
265 267 271 277 276 277 279 285 289 288 281 284 290 297 301 305 311 317 325 329 330 331 335 341 341 343 334 322 325 330 322 327 325 322 325 325 319 322
266 267 269 274 276 274 281 281 286 282 279 282 288 294 296 300 308 317 324 330 330 334 337 343 346 340 323 315 314 324 344 331 329 321 323 322 324 335
274 272 272 272 275 276 275 279 281 275 276 281 287 289 291 294 304 315 322 328 330 339 337 341 344 339 333 328 327 329 332 343 322 330 305 317 329 341
280 278 276 273 270 270 274 278 274 270 274 279 283 283 284 286 302 314 324 327 335 340 337 341 347 346 344 342 339 334 332 327 326 318 306 294 348 344
291 287 284 282 280 277 273 271 267 269 272 276 276 276 278 279 295 311 322 330 342 342 344 345 350 352 351 348 343 343 339 341 341 340 336 307 289 292
Wind_Speed_850mb
16 17 18 21 24 27 32 35 37 46 71 73 78 83 89 89 87 88 86 83 80 81 82 76 69 71 68 65 62 61 60 60 60 60 58 57 55 57
18 19 22 24 26 30 33 34 34 39 50 76 82 85 92 95 93 89 89 86 78 73 73 71 61 57 52 49 48 46 48 52 56 59 61 59 58 58
21 24 27 29 31 34 35 36 40 45 58 78 79 84 92 97 95 88 82 82 81 73 68 63 62 61 61 62 62 60 59 62 65 64 61 62 60 61
25 28 30 33 36 38 39 42 47 50 58 73 81 86 92 93 94 91 85 79 79 78 67 64 60 61 58 59 59 61 59 59 59 48 52 61 62 68
26 29 33 38 40 42 45 48 51 55 58 68 80 85 92 94 95 93 92 90 84 82 79 72 66 61 61 59 59 60 60 61 61 46 43 39 40 52
27 31 36 41 44 46 50 52 56 59 61 66 76 86 92 92 91 91 97 91 91 92 88 85 78 75 67 63 59 59 57 53 51 49 53 47 44 43
31 36 39 43 47 50 54 57 59 59 61 65 73 85 91 84 85 88 85 91 88 85 88 81 84 81 73 77 78 62 51 53 53 51 59 55 50 51
37 39 42 45 47 51 55 57 57 55 58 59 69 72 85 81 84 87 88 86 81 69 83 101 86 81 77 72 63 60 56 52 51 51 51 53 56 54
43 46 48 48 49 53 55 56 55 52 46 48 68 75 80 77 79 87 84 88 88 95 90 93 78 76 76 71 67 58 54 53 50 48 44 46 46 50
50 51 51 52 52 54 57 58 57 60 60 63 66 68 62 68 74 76 77 81 81 73 63 76 73 77 70 73 70 57 45 33 31 36 46 49 55 54
54 54 54 57 54 54 56 57 60 64 61 66 64 59 64 65 64 67 69 65 74 69 74 76 67 82 86 82 72 28 29 51 66 59 46 45 46 46
57 58 59 59 59 55 48 53 64 67 69 72 67 63 61 61 57 55 58 61 69 79 72 65 71 70 55 55 35 64 73 60 51 41 38 39 40 45
62 62 61 59 58 54 42 49 64 59 68 67 66 65 63 60 57 56 56 58 64 67 71 55 65 68 60 67 81 74 69 64 59 43 37 36 35 39
66 63 62 61 62 56 42 54 53 59 65 62 62 61 60 58 58 58 60 58 55 61 62 49 55 56 62 71 73 73 67 64 57 47 43 42 43 43
65 65 64 64 52 46 54 59 61 61 58 58 58 56 54 56 59 61 61 61 62 57 54 47 45 46 50 61 70 73 69 67 48 44 55 55 54 51
61 62 62 62 57 57 62 58 60 60 56 55 55 54 54 55 58 58 63 64 68 65 55 51 47 44 49 53 57 69 65 64 60 51 55 55 53 56
60 65 66 65 62 60 60 61 63 58 53 50 50 51 52 54 55 55 57 60 62 67 67 59 53 48 45 46 54 50 49 52 54 53 56 62 51 56
60 69 76 73 67 66 63 67 65 58 50 51 48 48 49 51 53 53 53 55 60 62 64 62 60 60 55 49 23 40 53 53 56 55 54 61 58 53
61 71 80 82 80 76 69 70 67 55 50 49 46 45 46 46 46 49 51 52 57 58 59 60 57 53 59 66 68 39 50 49 49 49 48 49 57 56
69 77 82 76 73 74 75 70 63 55 49 47 44 42 41 41 41 43 45 49 54 56 61 58 56 52 49 57 64 63 44 52 55 62 52 51 53 44
72 77 71 69 71 72 67 64 59 53 48 45 41 39 36 36 35 38 41 42 47 52 59 61 57 46 41 43 44 53 45 31 31 31 33 44 39 37
61 64 68 70 65 62 63 61 55 50 44 41 38 37 33 30 31 34 35 40 42 48 54 57 56 50 43 39 45 46 50 45 37 33 28 19 17 22
51 49 46 43 46 52 54 51 49 46 39 37 36 35 30 27 26 28 29 32 38 45 51 58 58 53 47 40 39 44 39 41 40 33 21 18 18 19
Wind_Direction_850mb
347 344 337 336 333 329 328 331 333 328 326 333 335 335 335 335 334 330 326 321 316 312 310 307 306 303 303 303 301 298 295 292 288 285 283 284 273 271
342 336 332 328 324 320 323 325 325 322 316 325 329 331 330 331 332 329 326 324 320 315 311 310 313 309 306 308 302 305 299 295 292 289 284 281 281 265
335 332 326 322 319 316 315 317 319 321 317 319 324 326 328 328 329 329 328 323 323 323 322 319 313 309 301 298 300 298 296 297 296 287 284 281 277 272
332 323 318 316 312 312 314 315 314 316 315 317 320 324 326 327 328 327 328 325 326 328 328 324 323 320 313 308 304 300 290 288 296 302 292 285 278 266
326 321 316 312 308 308 309 309 310 311 313 314 317 322 326 329 328 327 328 327 326 327 326 325 323 322 315 313 311 307 299 291 290 279 281 278 281 280
323 322 316 307 306 306 306 307 308 311 314 314 317 323 326 328 328 324 321 322 322 325 325 324 324 323 317 316 315 314 309 304 300 277 270 269 283 281
311 313 310 306 305 305 306 308 308 310 312 315 319 322 325 321 319 319 313 315 317 320 319 319 317 319 316 317 317 314 311 303 295 288 275 274 285 288
301 303 304 303 304 303 303 305 306 308 311 313 320 311 314 314 312 316 317 315 314 316 308 306 313 312 317 320 315 305 301 300 296 293 287 283 282 282
293 297 300 304 305 304 303 302 301 302 305 304 306 312 312 318 319 314 306 302 303 303 307 305 312 310 318 318 317 308 303 297 292 292 290 281 277 275
287 292 298 303 304 302 301 300 302 308 311 312 309 309 313 309 309 308 307 306 306 312 314 304 311 311 318 317 320 317 308 308 296 295 298 294 289 281
285 290 295 299 302 299 297 300 301 301 307 305 306 309 313 315 315 314 318 318 312 308 310 305 305 300 303 302 314 306 303 305 304 305 300 300 299 293
284 288 292 298 299 300 293 296 296 300 304 308 314 313 314 316 317 319 325 320 313 315 321 316 316 315 314 314 302 297 306 310 312 307 306 310 308 296
282 286 290 294 293 292 284 282 283 297 301 305 308 311 313 315 319 324 327 321 317 308 318 311 305 308 303 302 306 309 313 314 315 307 305 311 318 319
282 285 289 292 293 292 281 270 277 291 301 301 304 307 310 317 322 324 324 323 319 314 319 317 304 303 304 305 305 312 314 315 316 305 305 311 316 314
281 286 290 293 288 276 274 278 285 295 297 297 300 305 310 316 318 321 322 326 321 324 325 326 319 312 306 301 303 306 310 317 318 310 304 309 312 316
282 284 284 281 277 278 283 287 292 299 292 293 298 303 308 312 316 322 325 327 325 328 332 338 332 321 310 303 298 300 307 301 317 318 317 310 309 315
278 278 279 279 278 279 281 285 291 296 288 289 293 300 306 310 314 321 325 327 327 330 332 336 336 329 321 314 305 308 311 307 315 320 321 318 315 321
288 289 289 286 283 286 284 286 290 293 285 285 292 298 304 309 313 319 325 329 329 331 332 338 338 335 332 324 331 323 313 312 321 318 318 317 317 321
265 267 271 277 276 277 279 285 289 288 281 284 290 297 301 305 311 317 325 329 330 331 335 341 341 343 334 322 325 330 322 327 325 322 325 325 319 322
266 267 269 274 276 274 281 281 286 282 279 282 288 294 296 300 308 317 324 330 330 334 337 343 346 340 323 315 314 324 344 331 329 321 323 322 324 335
274 272 272 272 275 276 275 279 281 275 276 281 287 289 291 294 304 315 322 328 330 339 337 341 344 339 333 328 327 329 332 343 322 330 305 317 329 341
280 278 276 273 270 270 274 278 274 270 274 279 283 283 284 286 302 314 324 327 335 340 337 341 347 346 344 342 339 334 332 327 326 318 306 294 348 344
291 287 284 282 280 277 273 271 267 269 272 276 276 276 278 279 295 311 322 330 342 342 344 345 350 352 351 348 343 343 339 341 341 340 336 307 289 292